Wind_Speed
72 69 66 64 62 63 65 68 68 68 69 70 70 71 72 73 74 74 74 74 74 73 71 69 68 67 66 66 66 68 69 70 70 70 69 68 66 64 63 63 63 63 64 64 64 64 64 63 62 62 62 62 63 63 63 62 62 61 60 60 60 60 59 58 57 56 55 55 54 54 54 53 53 52 50 50 50 50 50 51 51 51 52 52 53
73 70 68 66 64 63 64 67 69 70 70 71 72 73 74 74 74 74 74 73 73 72 70 69 67 66 65 63 63 64 65 67 69 70 70 70 68 67 66 65 65 65 65 65 65 64 63 63 62 62 62 63 63 63 63 64 64 63 63 64 64 64 64 63 61 59 58 57 55 55 54 53 52 50 49 49 49 50 50 51 51 52 52 53 54
74 72 70 69 68 66 64 66 70 72 73 73 73 74 75 75 75 74 74 73 72 70 69 68 67 66 65 64 63 63 63 65 67 69 70 70 70 69 68 68 67 67 66 66 65 64 64 64 63 63 64 65 65 65 65 65 66 66 66 66 66 66 65 65 63 61 60 58 56 55 54 52 51 49 48 49 50 50 51 51 52 52 53 53 54
75 74 73 72 72 71 69 67 69 72 74 75 76 76 76 76 76 76 75 74 72 70 69 68 67 67 65 65 64 64 64 65 66 67 68 70 71 71 72 71 70 69 67 66 66 65 65 65 65 66 67 67 66 66 65 65 65 66 66 65 65 65 64 64 63 61 60 57 55 54 53 52 50 49 49 50 50 51 51 51 52 53 54 54 55
78 78 78 78 78 77 76 74 71 71 72 74 76 78 78 78 78 78 77 76 75 73 71 70 69 69 68 67 67 66 66 67 67 67 68 69 70 72 73 73 73 72 70 69 69 68 67 67 67 68 68 67 66 64 63 63 63 63 62 62 62 62 63 63 62 61 59 57 55 54 53 52 50 50 50 50 51 51 52 52 53 54 55 55 56
83 83 83 82 81 81 81 81 79 75 73 73 75 78 80 81 81 80 80 79 78 77 75 73 73 73 72 71 70 70 69 69 68 68 69 69 70 71 72 73 73 73 72 72 70 69 68 68 67 67 66 65 64 63 63 63 62 61 60 60 61 62 62 62 61 61 60 57 55 54 53 52 51 51 52 52 52 52 53 53 54 55 56 57 57
85 85 84 82 81 80 80 82 83 81 78 76 75 77 79 81 82 83 83 83 82 80 79 77 75 75 76 76 75 74 74 73 72 71 70 70 70 70 71 71 71 71 70 70 69 68 67 66 65 65 64 64 63 64 64 64 63 62 61 60 60 60 61 60 59 58 58 56 55 54 53 53 53 53 53 53 54 54 54 55 55 56 57 58 58
81 81 81 80 79 78 78 79 81 82 82 80 77 76 77 79 81 83 85 86 86 85 83 81 79 77 77 78 78 78 77 77 76 75 75 74 73 72 72 72 73 72 72 71 71 70 69 68 67 66 65 64 64 65 65 65 64 63 62 61 60 59 58 58 57 56 56 55 53 54 55 55 55 55 54 55 55 55 56 56 56 57 58 59 59
82 81 81 80 80 79 78 79 80 81 83 83 81 79 78 79 81 82 84 86 88 88 86 84 82 81 80 78 78 78 78 78 79 79 79 78 78 77 77 78 78 78 77 76 75 74 73 72 71 70 68 65 64 66 66 66 67 66 65 63 61 58 57 57 57 57 56 54 53 55 57 57 57 57 56 57 57 57 57 58 58 58 59 59 58
84 83 83 83 83 83 83 83 84 84 84 84 84 83 81 80 81 83 84 85 87 89 89 86 84 84 83 82 80 80 80 80 80 81 81 81 81 81 81 80 80 80 79 77 76 75 75 75 74 71 69 67 65 66 67 67 68 68 66 64 61 59 57 57 57 57 56 54 54 56 58 59 59 59 59 59 59 59 59 60 61 60 60 59 57
85 85 85 86 87 88 89 90 90 89 89 88 87 86 85 83 83 84 85 85 86 87 89 90 88 87 86 85 84 84 84 85 85 84 83 82 82 83 83 82 81 81 80 79 77 76 75 75 74 71 69 68 67 67 67 68 68 67 66 65 62 61 59 58 58 58 57 57 57 58 59 59 60 61 61 61 61 61 62 63 64 63 61 58 57
88 89 90 90 91 93 95 97 96 95 94 93 91 90 88 86 85 85 86 86 87 86 87 88 90 91 90 89 87 87 87 88 89 90 89 87 85 84 83 83 83 82 81 80 79 78 77 75 73 72 70 69 68 68 68 68 67 67 67 66 65 63 62 61 61 61 61 60 59 60 60 60 60 61 62 63 64 64 65 66 66 65 62 59 57
94 94 95 96 97 99 100 100 99 99 99 98 97 96 94 91 88 87 86 87 88 88 87 86 86 89 91 92 91 90 90 90 91 92 93 93 91 89 86 85 83 82 81 80 79 78 78 77 76 75 73 72 71 70 70 69 69 68 68 68 68 66 64 63 63 63 63 62 60 60 60 61 61 61 62 64 66 67 68 69 69 67 63 60 59
100 100 101 102 104 105 104 103 101 101 100 100 100 100 100 98 96 93 90 88 88 88 88 87 86 86 87 89 90 91 92 93 93 93 94 95 95 94 92 89 87 85 83 82 80 80 79 78 77 76 75 74 73 72 71 71 71 70 70 70 69 67 65 64 64 65 64 63 61 61 61 62 62 62 63 65 67 69 70 71 71 69 66 63 62
103 104 104 105 106 106 106 105 104 104 103 102 102 101 101 101 101 100 97 94 91 90 89 89 88 87 88 88 89 90 92 95 96 96 96 96 96 96 95 93 91 88 86 84 82 81 79 75 72 72 72 72 71 71 71 71 72 73 73 72 69 66 64 63 65 66 66 63 62 63 63 64 64 64 65 66 68 70 72 73 73 71 69 67 65
103 104 104 105 105 105 105 105 105 105 105 105 105 104 103 102 101 102 102 101 98 96 94 92 91 90 89 89 90 91 93 95 97 98 98 98 98 98 97 96 95 93 90 87 84 81 78 75 72 70 69 68 68 68 69 70 73 74 74 71 68 65 63 62 64 66 65 64 64 65 65 66 66 66 66 68 69 71 72 74 74 74 72 69 68
100 101 101 102 102 102 102 102 102 103 104 105 106 107 107 106 104 103 103 103 102 101 99 97 96 94 93 91 91 90 91 93 95 96 98 98 99 99 99 98 97 95 93 89 85 81 79 78 77 75 72 70 68 68 68 69 70 71 70 68 66 65 63 63 64 66 66 66 67 67 67 67 67 67 68 69 71 72 72 74 75 75 73 70 68
95 96 96 97 97 98 98 99 99 100 101 102 104 105 106 107 108 107 105 103 103 102 103 102 100 99 97 96 94 92 90 89 90 91 93 94 95 95 95 95 94 93 91 88 84 80 77 76 76 75 74 73 71 69 69 68 68 69 68 67 66 65 63 63 65 66 67 68 68 67 67 67 68 69 71 72 73 73 72 72 74 74 72 69 68
92 93 94 94 95 95 95 96 96 97 98 99 100 102 103 104 106 108 108 107 105 103 102 102 102 101 100 100 99 97 94 91 89 88 89 89 89 89 89 89 88 87 85 83 80 78 75 74 73 72 70 70 70 70 69 68 68 68 69 68 67 65 63 64 65 65 66 68 68 68 69 69 71 73 74 75 74 73 71 72 73 73 71 68 67
93 93 93 92 92 92 92 92 92 93 94 95 96 98 99 101 102 104 106 108 108 106 104 102 101 101 100 100 101 101 100 98 95 93 91 89 89 88 88 87 85 84 82 80 77 75 73 72 72 71 70 69 68 69 69 69 69 70 71 70 67 64 64 66 67 67 69 71 72 72 72 72 74 74 75 75 74 71 71 72 73 72 69 66 66
92 91 91 90 90 90 90 91 91 91 92 93 93 94 95 97 99 101 102 104 106 107 107 104 102 100 98 99 100 101 101 102 101 100 97 94 91 91 90 89 88 87 85 82 79 75 72 71 70 71 72 73 72 72 71 71 71 72 72 71 68 66 67 69 69 72 74 75 73 72 71 70 71 73 74 73 72 71 71 73 74 72 69 66 66
92 92 91 91 91 91 92 92 92 92 92 93 93 93 93 94 95 97 99 101 102 104 105 105 104 102 99 97 97 98 100 101 103 103 102 100 96 94 92 91 90 90 89 87 83 78 74 71 70 69 71 74 74 75 74 73 73 73 72 71 70 69 69 69 70 74 76 74 71 69 67 68 70 72 71 71 70 70 69 70 72 73 71 70 69
94 93 92 92 91 91 92 92 92 92 92 93 93 93 93 94 95 95 97 98 99 101 102 103 104 104 102 98 96 95 96 97 100 102 103 102 101 98 94 92 91 90 89 88 85 81 76 73 71 70 71 72 73 73 74 74 72 71 70 70 71 70 69 69 71 74 74 72 69 67 68 69 72 71 70 70 70 68 67 68 72 74 75 76 75
93 92 92 92 91 91 92 92 92 92 92 92 93 93 92 93 94 95 96 97 98 98 99 99 100 102 102 100 98 95 94 93 95 97 99 100 101 100 97 93 91 90 89 87 84 82 79 77 75 74 74 74 74 74 74 74 73 71 70 71 72 72 71 71 73 74 72 70 68 69 70 71 72 71 70 70 70 70 69 71 73 76 79 81 81
91 91 91 91 91 92 92 92 92 92 92 93 93 93 92 93 93 94 95 96 98 98 98 98 98 98 99 99 97 95 94 92 92 92 93 95 96 98 98 96 92 89 88 87 86 84 82 80 78 77 76 76 76 76 75 74 73 71 70 71 73 72 71 73 75 74 71 69 69 70 71 70 69 69 70 70 71 71 71 71 70 72 76 80 83
90 90 90 90 90 90 91 91 91 91 91 92 93 93 93 93 94 94 94 95 96 97 98 98 98 98 97 96 95 94 93 93 92 90 89 90 91 92 95 96 93 89 86 85 85 84 83 81 80 80 80 79 77 76 75 74 74 72 70 72 75 75 75 77 77 74 70 69 70 72 73 72 70 69 70 72 72 71 70 69 68 69 70 73 78
88 88 87 87 86 86 86 86 87 87 87 88 89 89 90 91 92 93 94 94 95 96 97 98 99 99 98 96 94 93 92 92 91 90 89 89 89 88 90 92 93 91 87 85 83 81 81 81 82 83 84 82 78 75 74 74 76 74 71 72 76 76 74 75 74 71 70 71 72 74 75 75 74 72 71 72 71 69 68 68 67 67 67 68 70
85 84 83 82 81 81 81 81 80 81 81 81 82 82 83 85 86 88 89 91 93 94 96 97 98 98 98 97 95 94 92 90 89 89 90 91 91 89 87 88 89 91 89 86 83 80 81 82 83 84 85 84 81 77 73 73 75 74 72 72 74 74 72 72 71 71 71 73 75 75 76 75 74 72 71 69 66 65 66 66 65 65 65 65 66
76 75 74 73 72 72 72 71 71 72 72 73 74 74 75 77 79 80 82 84 87 90 92 94 95 96 97 97 96 95 92 89 87 87 89 92 93 92 88 85 84 85 86 85 82 80 81 83 83 84 84 84 83 80 75 73 73 73 73 73 72 71 70 69 70 71 72 74 76 77 77 75 72 71 70 67 63 64 66 65 65 65 65 66 67
67 66 66 65 64 64 64 63 64 64 64 64 65 65 66 69 71 73 74 75 79 82 85 87 89 91 93 95 95 95 92 89 87 87 88 90 92 92 90 87 84 82 82 81 79 78 79 81 81 81 82 83 84 83 81 78 76 75 74 72 70 68 67 68 70 72 73 74 76 77 77 74 71 70 70 67 65 67 69 68 67 67 67 67 68
63 63 64 63 62 61 60 59 60 60 60 60 60 60 59 61 63 65 67 68 70 73 75 78 80 83 86 89 90 91 90 88 87 86 86 87 89 91 91 89 87 85 84 81 78 76 78 79 78 77 77 79 81 83 83 81 78 76 74 72 69 68 67 68 70 72 73 73 75 75 74 72 69 68 70 69 68 70 71 70 69 68 68 69 70
62 61 61 60 60 58 57 57 57 57 57 57 57 58 57 57 57 59 60 62 63 65 67 68 71 74 77 80 82 84 85 85 85 85 85 85 86 88 89 89 87 87 88 86 81 77 77 78 79 77 75 73 75 78 79 78 76 75 73 71 69 69 69 69 70 71 72 73 73 73 72 70 68 69 71 72 72 72 72 71 70 70 71 71 72
57 57 56 56 56 55 55 55 54 54 55 55 55 55 56 56 55 56 57 58 59 60 61 62 64 66 69 71 73 75 77 79 80 82 83 84 84 85 86 87 86 86 88 88 84 80 78 78 79 80 78 74 71 71 73 74 75 74 72 70 69 69 70 71 72 73 74 73 72 70 69 69 68 70 72 75 75 73 72 71 71 72 73 73 73
54 54 54 54 53 53 53 53 52 52 52 53 53 53 53 53 53 54 55 55 56 56 57 58 59 60 62 64 66 68 70 72 74 76 78 80 81 82 83 84 85 85 87 88 86 83 82 82 81 81 80 77 73 70 70 71 73 74 73 71 71 71 71 72 75 76 75 74 72 70 69 68 67 69 74 76 76 74 73 72 73 74 74 75 76
52 52 51 51 50 49 49 48 47 47 48 49 50 50 50 50 50 51 51 52 53 53 54 55 56 57 57 58 60 61 63 65 67 70 71 73 76 79 81 82 82 83 85 87 86 85 85 86 85 83 81 77 73 71 69 69 71 72 72 71 71 72 73 75 77 77 76 75 74 72 71 68 66 69 73 76 76 76 75 76 76 77 77 77 78
50 49 48 46 43 42 41 42 42 44 46 47 48 48 47 47 47 47 48 49 49 49 49 50 52 53 54 54 55 56 57 58 60 63 65 67 71 76 79 80 79 79 80 81 82 81 81 81 81 79 76 72 70 70 70 70 70 71 71 71 72 74 76 76 76 77 78 78 78 76 73 70 68 70 73 76 77 77 77 77 77 77 76 75 74
47 47 44 41 38 37 38 40 43 45 46 46 45 44 44 43 43 43 43 44 44 45 46 46 47 48 49 51 51 51 51 53 55 57 59 62 67 72 75 75 76 77 77 77 76 75 75 74 73 72 70 68 67 67 68 68 68 68 68 68 69 71 73 74 73 73 74 76 76 75 73 71 70 71 73 75 76 75 75 74 73 72 70 69 69
45 43 39 36 35 36 38 41 42 43 43 42 41 40 40 39 39 39 39 40 40 42 43 44 44 44 44 45 47 47 47 48 50 52 55 58 63 67 70 71 72 74 74 74 74 73 73 72 71 68 68 67 66 64 64 64 64 63 62 61 61 63 65 67 68 67 66 67 67 68 67 67 68 69 70 71 71 71 71 70 68 67 67 67 68
41 38 34 33 34 37 38 40 40 40 39 38 37 37 37 38 37 37 37 37 38 40 40 40 40 39 39 40 42 43 44 45 46 48 51 55 58 61 64 67 69 70 72 73 73 72 73 73 72 70 70 69 67 64 62 61 61 60 59 57 57 56 57 59 60 61 61 62 62 63 64 64 65 65 66 67 67 67 67 66 66 67 67 68 70
36 33 31 32 34 36 37 37 37 36 36 35 36 36 36 36 36 36 35 35 35 36 36 35 34 33 34 35 37 39 40 41 42 45 48 51 53 57 60 63 66 68 70 72 72 72 73 74 74 73 72 71 69 67 64 62 60 59 58 57 56 55 54 55 56 57 58 59 60 61 62 62 63 63 64 64 65 65 66 66 67 68 68 69 71
32 30 30 31 33 34 35 34 33 33 32 32 31 31 30 30 30 29 29 28 28 28 28 28 27 27 28 29 31 32 35 37 38 40 43 46 49 53 57 60 63 66 68 71 71 72 74 75 74 72 71 71 71 70 68 65 62 60 59 58 57 56 56 56 56 56 57 58 59 59 60 61 62 63 64 65 65 66 66 67 68 69 70 71 72
31 29 28 29 30 32 32 32 31 29 27 25 25 24 23 23 22 21 21 20 19 19 19 19 19 20 22 23 24 26 28 31 33 35 37 40 44 49 53 56 59 62 65 68 70 72 73 73 72 70 69 70 71 70 69 67 65 63 61 60 60 60 59 59 59 59 60 60 61 62 63 64 65 66 66 66 67 67 68 68 69 70 70 71 72
30 29 28 27 28 30 30 30 28 25 23 22 22 21 20 19 18 16 15 14 12 12 12 12 13 15 17 18 20 21 23 25 28 30 33 36 40 43 47 50 54 57 61 64 67 70 71 71 70 69 69 70 70 70 69 68 66 65 64 63 63 63 63 63 63 63 63 64 65 65 66 67 67 67 67 67 67 67 68 69 69 70 70 70 71
29 29 28 27 27 28 28 28 27 24 22 22 23 23 23 21 19 17 15 13 10 9 8 8 9 11 13 15 16 17 19 21 24 27 30 33 36 39 42 45 48 52 56 59 62 65 67 68 69 70 70 69 69 69 68 67 66 65 65 65 65 65 65 65 65 65 66 66 66 66 66 66 66 66 66 66 66 67 67 67 68 68 67 67 67
28 28 28 27 27 26 25 25 25 24 23 22 22 23 22 21 20 19 18 16 13 11 8 7 6 7 8 10 11 13 15 17 19 22 25 28 31 34 36 40 43 47 50 53 56 60 63 67 69 70 69 68 67 66 65 65 64 65 65 66 66 65 65 65 66 66 65 65 64 63 63 63 63 63 63 63 64 65 65 65 64 64 63 63 62
32 30 28 27 26 25 24 24 23 23 22 21 21 20 19 17 18 20 20 19 18 16 14 12 9 7 5 5 5 7 8 11 13 16 19 22 25 27 30 34 37 41 45 49 52 56 60 64 66 67 66 65 64 63 62 62 62 63 64 64 64 63 63 63 63 63 62 61 60 60 60 60 60 60 60 61 61 61 60 60 59 59 59 59 58
37 36 34 32 29 27 25 23 22 22 22 20 19 18 17 16 17 19 20 19 18 17 16 15 14 12 10 7 6 6 7 8 9 11 14 17 19 22 24 27 31 34 38 42 47 51 54 56 58 60 60 60 59 58 59 59 59 60 61 61 60 60 61 61 62 61 61 59 58 57 57 56 56 56 56 56 56 55 55 56 55 55 55 55 55
36 38 39 38 36 33 30 26 23 22 21 20 18 17 16 15 15 15 15 16 17 16 15 14 13 11 10 8 6 4 3 3 5 6 9 11 14 16 19 22 25 28 31 35 38 42 45 47 49 51 52 52 52 53 53 54 54 55 56 56 57 58 58 59 58 57 56 55 54 53 52 52 52 51 51 51 51 51 52 53 53 53 54 55 56
36 37 38 39 39 39 36 33 29 25 23 21 19 17 15 14 14 12 10 11 13 14 14 13 12 9 7 5 4 4 4 2 0 2 4 6 8 10 13 15 17 20 23 26 29 32 35 38 40 41 42 43 44 45 46 47 48 49 50 51 52 53 53 53 52 51 50 49 49 48 48 47 47 48 48 48 48 49 50 52 53 53 54 56 57
37 38 38 39 39 39 39 37 35 32 27 24 21 19 16 13 12 10 9 8 8 9 10 12 12 11 9 6 3 2 1 1 1 2 3 5 6 8 10 12 13 14 16 17 19 21 24 26 28 30 32 34 35 37 38 40 42 44 45 46 47 47 47 46 46 46 45 45 45 45 45 45 45 46 46 47 48 49 51 52 53 54 55 55 56
37 38 39 39 40 40 39 38 37 36 33 29 26 22 19 16 13 11 9 7 6 5 6 7 8 9 10 9 7 4 1 2 4 5 5 6 7 10 12 15 15 15 15 16 17 18 20 22 24 26 27 28 30 32 34 36 37 38 39 40 40 40 40 41 41 41 42 42 43 43 44 44 45 46 47 48 49 50 51 52 52 53 53 54 54
Wind_Direction
274 273 272 270 267 263 261 258 255 253 251 251 252 253 254 254 255 256 258 260 260 260 259 258 257 257 257 258 259 259 258 256 254 252 250 249 247 247 246 245 245 244 243 244 245 246 248 249 251 253 255 257 259 261 263 265 266 267 268 268 268 269 269 269 268 267 267 266 266 265 265 266 266 267 267 268 269 270 270 270 270 270 270 270 270
270 270 269 268 266 262 260 258 256 253 251 250 250 251 253 255 255 256 258 259 260 260 260 259 257 256 256 257 258 258 258 258 256 254 252 251 249 247 246 245 245 245 245 246 247 248 249 251 252 254 256 259 260 262 264 265 267 268 268 269 269 270 271 271 270 269 268 267 267 266 266 266 266 266 266 267 268 269 269 269 269 269 270 271 272
268 267 266 266 264 262 259 257 255 254 252 250 249 250 251 253 254 255 256 257 258 259 259 258 257 256 255 256 256 256 256 256 256 256 255 254 252 250 248 246 246 246 246 247 248 249 250 252 254 256 258 259 260 261 263 264 266 267 267 268 269 270 271 271 271 270 268 267 267 267 267 266 266 266 266 267 267 268 268 269 269 271 272 273 275
267 266 265 265 264 263 261 258 255 254 253 251 249 249 249 250 252 254 255 255 256 256 256 256 255 254 254 254 254 254 253 253 253 254 255 255 255 253 251 249 247 246 246 247 248 249 250 252 255 257 257 258 259 260 262 264 265 266 267 268 268 269 269 270 270 269 268 267 266 267 268 268 267 267 267 267 267 268 269 270 271 273 275 276 278
266 266 266 265 264 263 262 261 259 256 255 254 252 250 250 250 251 252 253 253 254 254 253 252 252 251 251 250 251 251 251 251 251 250 251 251 252 252 252 250 249 247 246 246 247 248 250 252 254 255 256 258 260 262 265 266 268 268 269 269 269 268 267 268 268 269 268 267 267 267 268 268 269 269 268 268 268 268 270 272 274 275 276 278 279
267 267 268 267 266 263 262 262 262 260 258 257 256 254 252 251 251 252 252 253 253 252 251 250 249 248 248 248 248 248 249 249 250 249 249 248 248 249 249 249 248 248 247 247 248 248 250 251 252 254 257 260 263 266 268 270 272 272 272 271 270 268 267 266 267 267 267 266 267 268 268 269 270 270 270 269 269 269 271 273 274 276 277 278 278
265 266 266 267 266 266 264 263 263 264 263 261 259 257 256 254 253 252 253 253 253 253 252 251 249 247 247 247 247 247 247 248 248 249 250 250 250 249 249 249 249 250 250 250 251 251 253 253 255 256 259 262 265 268 270 272 273 275 275 273 270 268 266 266 265 265 265 265 266 268 269 270 270 271 270 270 270 270 271 272 274 275 276 277 277
264 263 263 263 264 265 266 265 265 266 267 266 264 261 259 258 256 254 253 253 253 254 253 253 252 250 248 247 247 247 247 247 247 248 248 249 250 250 251 252 253 253 254 254 255 256 257 258 259 260 262 264 266 268 270 272 274 276 276 275 271 268 266 266 265 264 263 264 266 268 270 270 270 270 270 270 269 270 270 271 272 273 274 274 275
266 265 263 263 263 264 265 266 267 267 267 268 267 265 262 261 260 258 256 254 253 253 253 253 253 253 253 251 250 250 249 248 247 247 248 248 248 249 251 252 254 255 256 258 259 260 261 261 262 263 264 265 267 268 270 272 274 276 276 274 271 268 267 266 265 263 262 263 266 268 270 270 270 270 270 270 270 270 270 271 271 271 272 271 271
269 268 267 266 266 266 267 267 267 267 266 266 267 266 264 262 261 260 259 257 254 253 253 253 253 254 255 255 254 254 253 252 251 249 248 248 249 250 251 252 254 255 257 258 259 260 261 263 263 264 264 265 267 268 270 272 274 275 276 273 270 268 268 268 267 265 264 265 266 267 268 269 269 270 270 271 271 271 271 271 271 270 269 268 268
271 271 271 271 271 271 272 271 270 268 266 265 265 265 264 262 261 259 259 258 257 255 253 253 252 252 253 253 254 255 256 256 255 254 252 251 250 251 252 253 254 255 256 258 259 260 261 262 263 263 264 265 267 268 269 271 272 274 274 271 269 268 268 269 269 268 266 266 266 266 266 266 267 269 270 271 271 272 272 271 270 268 266 265 265
270 271 271 272 273 274 274 274 273 271 269 267 265 263 263 262 261 259 258 258 258 257 256 254 253 252 252 251 252 252 253 255 256 256 256 255 254 253 253 253 254 255 256 258 259 261 261 262 262 263 264 265 266 266 267 269 271 271 271 270 268 268 269 270 271 270 267 265 265 265 264 264 266 267 269 271 271 272 271 270 269 266 264 262 261
271 271 271 271 271 272 273 272 272 271 271 269 267 265 263 262 260 259 258 257 256 257 257 256 254 253 252 252 251 251 251 253 254 255 256 257 258 257 257 256 256 256 257 258 259 260 262 263 263 263 264 264 264 265 266 267 268 268 268 269 269 269 270 271 273 273 270 267 266 266 265 265 266 267 268 270 271 271 271 269 267 264 262 261 259
272 272 271 271 271 272 271 270 269 269 268 268 268 268 266 264 262 260 258 257 255 255 255 255 254 253 252 251 251 251 251 252 253 254 255 256 258 259 259 260 260 260 260 261 261 262 263 264 264 264 263 262 261 262 263 263 264 265 265 267 268 269 270 271 272 273 272 269 268 268 268 267 267 268 269 270 271 271 270 269 266 263 262 261 259
273 273 272 272 272 272 271 270 269 268 267 266 266 266 266 266 265 263 260 257 255 254 253 252 252 251 251 250 249 249 250 251 252 253 254 255 256 257 258 260 261 262 263 263 264 264 264 262 260 260 259 259 259 259 259 260 260 261 262 264 266 267 268 269 270 271 270 269 269 270 269 269 269 269 270 271 272 271 270 268 266 262 261 260 257
275 275 274 273 272 272 271 270 269 268 267 266 265 264 264 264 264 264 263 261 258 255 253 252 251 250 250 249 248 248 248 250 251 252 253 254 255 255 256 257 258 260 262 263 263 263 261 257 255 254 254 255 256 256 257 257 258 258 260 262 264 264 265 266 267 268 267 267 268 269 269 269 270 270 271 272 272 270 268 267 264 261 260 259 256
277 276 275 274 274 273 272 272 270 269 268 267 265 264 263 262 262 262 263 263 261 259 256 254 252 251 250 250 249 247 247 248 250 251 252 253 254 254 255 256 256 257 258 260 260 260 258 256 254 253 252 252 252 252 254 255 257 258 260 261 263 264 264 264 264 265 265 266 267 268 269 270 271 271 272 272 271 270 268 265 262 260 259 257 254
277 276 276 276 275 275 274 274 272 271 270 268 267 265 264 262 261 260 260 261 261 261 260 257 255 252 251 251 251 250 248 248 249 250 250 251 252 252 253 254 254 255 256 256 257 258 257 257 256 255 254 253 251 251 252 254 256 258 259 260 261 263 263 263 264 265 265 266 268 268 269 270 270 272 272 272 271 270 267 264 260 259 257 254 252
277 277 277 277 277 277 276 275 274 273 272 270 269 268 266 264 263 261 260 259 259 259 260 260 258 256 254 252 252 252 251 250 250 250 250 250 250 251 251 251 252 253 254 255 255 256 257 257 258 257 256 254 253 253 254 256 257 258 259 259 260 261 261 260 262 262 263 264 266 267 268 269 270 271 271 271 270 269 266 261 258 256 255 252 253
279 279 279 278 278 278 277 276 275 274 273 272 271 270 268 267 265 263 262 260 259 258 258 258 258 258 257 255 253 252 252 251 252 252 252 252 251 251 251 251 252 252 253 254 255 255 256 258 258 258 257 256 256 256 256 256 257 257 258 259 260 260 259 258 258 259 261 262 264 266 267 268 268 269 269 269 268 267 264 259 255 254 253 252 254
281 280 280 279 279 278 277 276 275 274 274 273 271 270 270 269 268 266 264 262 260 259 258 257 257 257 257 257 256 254 253 252 252 253 253 254 253 252 251 252 252 252 253 253 254 255 256 257 258 258 258 257 257 257 256 256 256 256 257 258 258 257 256 257 258 259 261 262 263 265 266 267 267 267 268 268 267 265 262 258 254 253 253 254 256
283 282 281 281 280 279 278 277 276 274 273 272 271 270 269 269 268 267 266 265 263 260 259 258 257 256 255 255 255 255 255 254 253 252 253 254 254 254 252 251 251 251 252 253 254 255 256 257 257 258 258 258 258 257 256 255 255 255 256 257 256 255 255 257 258 261 262 263 263 265 266 266 266 266 267 267 266 263 260 256 254 254 254 255 257
285 284 283 282 281 280 279 277 276 275 273 272 271 269 268 268 268 267 267 266 265 263 260 258 257 256 255 254 253 253 254 254 254 253 252 252 253 254 254 252 251 251 251 252 253 254 256 256 257 257 257 258 258 257 255 254 254 255 255 256 256 256 257 258 260 262 263 262 262 263 264 264 265 265 265 265 262 258 256 254 254 255 255 256 258
286 285 284 283 282 280 279 278 276 275 274 273 271 270 268 267 266 266 266 265 265 264 263 261 259 257 256 254 253 252 251 252 253 254 253 252 251 252 253 253 252 252 251 251 252 253 254 256 257 257 256 256 256 255 254 254 254 254 254 255 256 256 258 260 262 262 261 261 261 262 263 263 263 262 262 261 258 254 254 255 254 254 255 257 258
285 284 283 282 281 280 278 277 276 275 273 272 271 270 268 267 266 265 264 264 264 264 263 262 261 259 257 255 254 252 250 249 250 252 253 253 251 250 251 252 252 252 252 251 252 252 253 255 255 255 255 254 253 253 252 253 254 253 253 254 255 257 260 262 262 261 260 260 261 262 263 263 263 261 259 258 256 254 255 257 257 256 256 257 258
285 284 283 282 281 280 279 278 277 275 274 273 271 270 269 267 266 265 264 263 263 262 262 261 261 259 258 256 254 253 251 249 248 249 251 253 252 250 249 250 250 251 251 251 251 252 253 253 253 254 253 253 253 253 252 252 253 253 253 254 257 259 261 262 261 260 260 261 262 262 263 264 265 264 260 255 254 255 256 257 258 259 259 258 260
286 286 285 284 283 282 281 279 278 277 275 274 273 272 270 269 267 266 265 264 262 262 261 261 260 259 258 257 255 253 252 250 249 247 248 250 252 251 250 248 248 248 249 250 250 250 251 251 251 251 252 252 252 253 253 252 253 253 253 254 256 258 259 259 258 257 259 261 260 260 262 263 265 265 261 255 253 255 256 258 259 259 259 260 262
287 287 287 286 285 284 283 282 280 279 278 276 275 273 272 270 269 267 266 265 264 262 261 260 260 259 259 257 256 254 252 251 249 248 247 247 249 250 250 249 248 246 246 247 247 247 247 248 248 249 249 249 249 250 251 252 252 252 251 252 254 256 257 257 257 257 258 259 259 259 261 262 263 264 260 256 256 258 259 260 260 259 259 260 261
289 290 290 289 288 287 286 285 284 282 281 279 277 276 274 272 271 269 267 266 266 264 263 261 260 259 259 258 256 255 252 251 249 249 247 246 246 248 249 250 249 247 244 243 242 243 243 243 244 245 244 244 245 246 247 248 249 249 249 251 252 254 256 256 257 257 257 258 258 259 260 260 262 262 259 257 258 259 259 260 261 260 260 259 259
294 293 292 291 290 289 288 287 286 285 284 282 280 278 276 274 273 271 268 267 266 266 265 263 262 260 259 258 257 255 253 251 249 248 247 246 246 246 247 248 249 248 245 241 239 239 240 240 240 241 240 241 242 243 245 247 248 248 249 250 252 253 255 256 257 256 256 255 255 256 258 259 260 259 257 257 258 258 259 262 263 262 261 261 263
296 295 293 292 291 289 288 287 286 285 284 283 282 280 278 276 274 273 271 269 267 266 266 265 264 262 261 259 257 256 254 252 249 248 247 246 246 246 246 246 247 248 248 245 241 239 240 240 241 242 242 241 241 241 243 246 247 247 247 248 249 252 254 256 256 255 253 253 254 256 259 259 259 258 256 255 256 257 259 262 263 262 263 265 267
298 297 295 294 292 290 288 287 286 285 284 284 283 281 280 277 274 272 271 270 268 267 266 265 264 263 262 260 258 256 255 253 250 248 246 246 245 245 245 245 246 247 248 248 245 242 242 242 244 245 245 244 243 242 242 244 245 245 245 246 248 250 252 255 256 254 252 253 255 258 260 260 260 260 257 254 254 257 259 261 262 263 265 267 270
300 299 298 296 294 292 290 289 288 286 285 285 284 283 281 279 276 272 270 269 268 267 267 266 264 264 263 261 259 256 254 252 251 248 246 245 244 244 244 244 245 245 246 247 246 245 245 245 246 248 249 249 248 246 244 243 243 244 245 247 248 249 251 253 254 254 254 255 256 257 258 259 261 262 259 255 255 258 260 262 264 266 267 268 269
304 303 301 298 296 294 292 291 289 287 287 287 287 285 283 281 279 276 272 269 267 267 266 266 265 263 262 262 260 257 254 251 249 248 246 244 243 242 242 243 243 243 244 246 246 246 247 248 249 251 252 253 253 251 248 245 243 244 246 247 247 248 249 251 252 253 254 255 255 256 257 259 261 261 259 256 255 258 260 262 263 263 263 264 264
307 306 304 302 299 296 294 292 291 291 291 291 290 288 285 282 280 278 276 272 269 267 266 266 266 264 263 261 260 258 255 251 248 246 244 242 241 240 240 240 241 242 243 245 245 246 247 249 250 252 253 255 255 254 252 249 246 246 247 247 247 248 249 250 251 252 253 253 254 254 255 256 258 258 257 255 256 257 259 260 260 260 260 261 262
310 311 310 307 303 300 298 297 296 296 296 294 292 290 286 283 280 278 277 275 272 269 266 265 265 265 264 262 260 258 255 251 247 244 241 239 238 237 237 237 238 239 241 242 243 243 244 245 247 249 251 252 253 254 253 252 250 249 249 248 248 249 249 249 250 252 252 253 253 253 254 255 255 255 255 255 256 257 258 259 259 260 261 262 263
313 314 313 311 307 305 303 302 301 300 298 297 295 292 289 285 281 279 277 275 273 270 267 266 265 265 264 262 259 257 254 250 246 242 238 235 234 235 235 235 235 236 237 238 239 238 237 239 241 244 245 246 247 249 250 251 250 249 249 248 248 248 249 249 250 251 251 251 251 252 253 253 254 255 256 257 258 259 259 260 261 262 263 264 265
316 316 315 314 312 311 309 307 305 303 301 300 297 294 291 287 284 281 278 275 273 271 269 268 267 266 264 261 258 255 251 247 242 239 236 233 232 232 233 232 232 233 234 235 235 233 232 233 236 238 239 240 241 243 245 246 247 248 247 246 246 246 247 248 249 250 251 252 252 252 253 254 255 256 256 257 259 260 261 261 262 263 264 265 265
320 318 317 318 319 317 315 312 309 306 303 300 298 295 292 289 286 283 280 277 274 273 271 270 269 266 262 258 254 252 248 244 240 236 233 231 230 230 230 229 228 229 230 231 231 230 229 230 232 233 235 236 238 239 241 242 243 244 244 245 246 247 247 248 249 250 252 253 254 255 256 256 257 257 258 258 259 260 261 262 263 263 264 265 266
323 320 321 325 325 324 321 317 313 308 305 301 298 296 294 292 290 287 284 281 278 275 273 272 269 265 260 256 253 250 247 242 237 234 231 229 228 227 227 226 226 226 226 227 228 228 228 228 229 231 232 234 236 237 238 239 239 240 242 244 246 246 247 247 247 249 251 252 254 255 256 257 258 258 259 260 261 261 262 263 264 265 267 268 269
327 325 326 330 331 330 328 325 321 316 312 309 306 305 303 300 298 295 290 286 281 277 274 272 268 263 259 256 252 248 244 240 236 233 230 228 226 226 226 225 225 224 225 225 226 226 227 228 229 230 231 233 235 237 238 239 239 240 242 243 244 245 245 246 247 248 250 251 253 255 256 258 259 261 262 263 264 265 266 267 268 269 270 271 272
331 330 331 334 336 337 337 337 333 330 328 326 325 323 321 318 313 309 303 297 290 282 276 271 268 262 257 254 250 245 240 237 234 231 228 226 226 227 226 225 225 224 224 224 225 225 226 228 230 231 231 233 235 236 238 240 241 241 242 243 244 245 246 247 249 250 252 254 256 257 259 261 263 264 265 267 268 269 270 270 271 271 272 272 272
337 335 334 335 338 341 345 347 346 344 346 349 349 347 346 343 339 334 328 319 309 298 285 274 267 261 256 251 246 240 234 231 230 227 225 225 226 227 227 226 226 225 225 224 225 225 225 227 229 231 232 233 234 236 238 240 242 243 244 244 245 246 247 249 251 253 255 257 258 260 261 263 264 265 266 267 268 269 269 269 270 270 270 271 271
339 340 339 338 339 342 348 353 355 356 358 0 1 1 359 357 355 355 353 348 340 327 311 292 276 265 257 252 246 238 232 229 227 226 226 225 226 227 227 226 225 225 225 225 225 225 226 227 229 231 233 235 236 237 239 241 243 244 245 246 247 248 249 250 252 254 255 257 259 260 262 262 263 264 265 265 266 266 267 267 268 269 269 270 271
343 342 341 342 343 345 349 353 358 2 5 5 4 3 3 3 5 7 8 7 5 2 354 336 311 287 269 258 250 242 235 230 227 227 226 226 227 227 227 226 226 225 225 225 225 225 226 228 230 232 234 236 237 238 240 241 243 245 246 247 248 249 251 252 254 256 257 258 259 260 260 261 261 262 262 263 264 264 265 266 267 268 269 270 272
7 359 352 348 346 348 350 353 356 1 7 9 7 6 9 13 16 15 15 17 18 19 19 18 12 358 339 309 281 261 246 236 231 228 226 225 226 226 226 226 226 225 225 225 225 226 227 229 231 233 235 237 238 240 241 242 244 245 247 248 249 251 252 254 255 256 257 257 258 258 258 259 260 260 261 262 263 264 265 266 267 269 270 271 272
21 18 14 7 360 354 352 352 353 357 2 7 9 9 10 12 9 3 2 6 9 8 9 11 11 9 5 352 323 295 271 252 240 234 229 226 225 225 225 225 225 225 225 226 227 228 230 231 233 234 236 238 239 241 242 243 245 246 247 248 249 250 252 253 254 255 255 255 255 256 256 257 258 259 260 262 263 264 265 266 268 269 270 271 272
21 22 21 20 17 11 4 358 354 353 355 359 3 4 6 9 7 1 357 360 2 2 2 1 358 356 360 2 354 333 294 251 233 227 225 222 220 220 220 221 222 224 225 227 228 230 232 233 234 236 237 239 240 241 242 243 244 244 245 246 248 249 251 252 252 252 253 253 253 254 255 256 258 259 260 261 263 264 265 266 268 269 270 271 273
17 18 19 20 21 20 17 12 6 359 353 352 354 356 359 3 7 7 4 2 2 3 7 9 8 4 3 10 22 33 37 38 26 219 215 213 212 213 214 216 220 222 224 226 229 230 232 234 235 236 237 238 238 239 240 241 242 242 243 245 247 248 249 249 250 250 250 251 252 253 255 256 258 259 260 261 262 264 265 267 269 270 271 273 274
12 13 14 15 17 18 18 18 16 11 5 358 352 349 350 354 359 2 4 3 359 355 356 1 6 9 8 4 2 2 356 329 262 224 214 215 218 212 206 208 215 217 217 218 221 224 227 229 229 229 230 232 234 237 240 241 242 243 244 245 246 246 247 247 247 248 248 250 251 253 255 257 258 259 261 262 263 265 267 268 270 271 272 272 273
8 8 9 10 11 12 13 15 15 15 13 10 3 355 349 345 345 347 348 349 349 349 346 346 350 355 356 355 354 349 312 219 208 206 207 213 218 214 209 210 214 214 211 211 214 217 220 223 225 227 230 233 237 240 243 244 244 243 244 244 244 245 246 246 247 249 250 252 253 255 256 258 259 260 261 263 265 266 267 268 269 270 271 272 273
Height
5628 5628 5629 5630 5630 5630 5629 5629 5629 5628 5629 5629 5629 5629 5628 5628 5627 5627 5627 5626 5626 5626 5627 5627 5627 5627 5628 5629 5630 5631 5631 5632 5632 5631 5632 5632 5633 5633 5634 5634 5635 5636 5636 5635 5636 5637 5638 5639 5640 5641 5641 5642 5643 5644 5645 5646 5646 5647 5648 5648 5648 5648 5648 5649 5650 5651 5650 5650 5650 5650 5650 5650 5650 5651 5651 5651 5651 5651 5652 5652 5653 5654 5654 5655 5656
5619 5619 5619 5619 5619 5619 5619 5619 5618 5618 5618 5618 5618 5618 5618 5618 5617 5617 5617 5616 5616 5617 5617 5617 5617 5618 5619 5619 5620 5621 5622 5623 5623 5623 5624 5625 5625 5625 5625 5626 5626 5627 5628 5628 5629 5630 5631 5631 5632 5633 5633 5633 5635 5636 5637 5638 5638 5639 5640 5640 5639 5639 5639 5639 5641 5642 5642 5641 5642 5642 5642 5642 5642 5643 5643 5643 5644 5644 5645 5645 5645 5646 5647 5647 5648
5608 5608 5609 5609 5608 5608 5608 5608 5608 5607 5607 5607 5607 5607 5607 5607 5607 5607 5607 5607 5607 5607 5607 5607 5608 5608 5609 5610 5610 5611 5612 5613 5614 5615 5616 5616 5617 5617 5617 5616 5617 5618 5619 5621 5621 5621 5622 5622 5623 5624 5624 5625 5626 5628 5629 5629 5630 5630 5631 5631 5630 5630 5630 5630 5631 5633 5633 5632 5633 5633 5634 5634 5634 5635 5635 5635 5636 5637 5637 5638 5638 5638 5638 5639 5640
5597 5597 5598 5598 5598 5597 5597 5597 5597 5597 5596 5595 5595 5595 5595 5596 5596 5596 5597 5597 5597 5597 5598 5598 5598 5599 5599 5600 5600 5601 5602 5603 5604 5605 5606 5607 5608 5608 5608 5608 5608 5609 5610 5611 5612 5612 5612 5613 5615 5615 5615 5615 5617 5619 5620 5621 5621 5621 5621 5622 5622 5621 5621 5620 5622 5624 5623 5623 5623 5624 5625 5625 5625 5626 5627 5627 5628 5629 5630 5630 5630 5630 5630 5630 5631
5585 5585 5585 5585 5586 5586 5585 5585 5586 5586 5585 5584 5584 5584 5584 5584 5584 5585 5585 5586 5586 5586 5587 5588 5588 5589 5589 5589 5590 5591 5591 5592 5593 5595 5596 5597 5597 5598 5598 5598 5599 5600 5601 5601 5601 5601 5602 5604 5605 5605 5605 5606 5609 5611 5612 5612 5612 5612 5612 5613 5613 5612 5612 5612 5612 5614 5615 5614 5614 5614 5616 5616 5616 5617 5618 5619 5620 5621 5621 5621 5621 5621 5621 5622 5623
5573 5572 5572 5572 5573 5573 5573 5572 5572 5573 5574 5574 5573 5573 5572 5572 5572 5572 5573 5574 5574 5575 5576 5576 5577 5577 5578 5578 5579 5580 5581 5582 5583 5585 5585 5586 5586 5587 5587 5588 5589 5590 5591 5591 5591 5592 5593 5594 5595 5595 5596 5598 5601 5602 5602 5602 5602 5602 5603 5603 5603 5603 5603 5603 5603 5604 5605 5605 5605 5605 5606 5607 5608 5609 5610 5611 5612 5612 5612 5612 5612 5612 5612 5613 5615
5561 5560 5560 5559 5559 5560 5560 5560 5559 5559 5560 5561 5562 5562 5561 5561 5561 5561 5561 5562 5562 5563 5564 5565 5565 5566 5567 5567 5568 5569 5570 5571 5573 5574 5574 5575 5575 5576 5577 5578 5579 5579 5581 5582 5582 5583 5584 5585 5586 5586 5588 5590 5592 5591 5591 5591 5591 5592 5593 5594 5594 5594 5594 5594 5595 5595 5595 5596 5596 5596 5597 5598 5600 5601 5601 5602 5602 5603 5603 5603 5603 5603 5603 5604 5606
5549 5549 5548 5548 5547 5547 5548 5547 5547 5546 5545 5546 5548 5549 5549 5550 5550 5550 5549 5549 5550 5550 5551 5552 5553 5554 5555 5556 5557 5557 5559 5561 5562 5563 5563 5564 5564 5565 5566 5566 5567 5568 5570 5571 5572 5573 5575 5576 5577 5578 5580 5582 5582 5580 5580 5581 5581 5582 5583 5584 5584 5585 5586 5586 5586 5586 5586 5587 5587 5587 5588 5589 5591 5592 5593 5593 5593 5593 5593 5593 5595 5595 5594 5594 5596
5536 5535 5535 5534 5534 5534 5535 5535 5535 5534 5533 5533 5533 5535 5536 5537 5537 5537 5538 5538 5538 5537 5538 5539 5540 5541 5542 5544 5545 5547 5548 5550 5551 5551 5551 5552 5553 5553 5554 5554 5555 5557 5559 5560 5562 5563 5564 5566 5568 5570 5571 5572 5571 5570 5571 5572 5572 5573 5574 5574 5574 5576 5577 5577 5577 5577 5577 5578 5579 5579 5580 5581 5582 5583 5584 5584 5583 5584 5584 5584 5585 5586 5585 5584 5587
5521 5521 5521 5520 5519 5519 5520 5521 5522 5522 5521 5521 5520 5521 5522 5523 5523 5524 5524 5525 5526 5525 5526 5526 5527 5528 5529 5530 5532 5535 5537 5539 5540 5540 5540 5541 5542 5542 5542 5544 5544 5546 5548 5550 5551 5553 5554 5556 5558 5560 5561 5562 5561 5561 5561 5562 5563 5563 5564 5564 5565 5566 5567 5568 5569 5569 5569 5570 5571 5571 5572 5573 5573 5573 5574 5574 5574 5575 5575 5575 5576 5577 5576 5575 5576
5507 5506 5506 5506 5505 5504 5504 5504 5505 5506 5506 5507 5507 5507 5508 5508 5509 5510 5510 5511 5512 5513 5513 5513 5514 5515 5516 5518 5520 5522 5524 5526 5526 5527 5528 5529 5530 5530 5531 5532 5533 5534 5537 5539 5541 5543 5544 5546 5549 5550 5550 5551 5552 5552 5552 5552 5553 5554 5554 5555 5556 5556 5557 5559 5560 5561 5561 5561 5562 5563 5564 5564 5564 5564 5564 5565 5566 5566 5567 5567 5567 5567 5567 5566 5566
5493 5492 5492 5491 5491 5490 5490 5489 5489 5489 5489 5490 5491 5492 5493 5494 5495 5495 5496 5497 5497 5499 5500 5500 5501 5502 5502 5505 5507 5508 5511 5512 5512 5514 5515 5516 5517 5517 5518 5520 5521 5523 5526 5528 5530 5532 5533 5536 5539 5540 5540 5541 5542 5542 5542 5543 5543 5544 5544 5545 5546 5546 5547 5549 5551 5552 5552 5553 5553 5554 5555 5555 5555 5556 5556 5556 5557 5557 5558 5558 5559 5558 5558 5557 5557
5479 5478 5477 5476 5476 5476 5476 5476 5476 5475 5473 5472 5473 5474 5476 5478 5479 5480 5481 5482 5483 5484 5485 5486 5488 5489 5489 5491 5493 5495 5498 5499 5498 5500 5501 5502 5503 5504 5505 5507 5509 5511 5514 5517 5519 5521 5522 5525 5527 5529 5530 5530 5530 5531 5532 5533 5533 5533 5534 5534 5535 5536 5538 5539 5540 5542 5543 5544 5544 5544 5545 5545 5546 5548 5548 5547 5547 5548 5548 5549 5550 5550 5549 5548 5549
5466 5464 5463 5462 5461 5461 5461 5460 5460 5460 5459 5457 5456 5457 5457 5458 5461 5463 5465 5467 5468 5469 5470 5471 5473 5475 5476 5478 5480 5483 5485 5485 5485 5487 5488 5488 5489 5489 5490 5492 5495 5498 5501 5504 5506 5508 5511 5513 5515 5517 5519 5519 5520 5521 5522 5522 5523 5523 5523 5524 5525 5526 5527 5528 5530 5531 5533 5534 5534 5535 5535 5536 5537 5539 5539 5539 5539 5539 5539 5540 5541 5541 5540 5540 5540
5452 5449 5448 5447 5446 5445 5444 5444 5443 5442 5442 5441 5441 5441 5441 5440 5442 5443 5446 5450 5452 5454 5455 5456 5458 5460 5461 5463 5466 5470 5472 5471 5471 5473 5474 5475 5475 5475 5477 5479 5482 5485 5489 5491 5494 5496 5499 5501 5503 5505 5507 5508 5510 5511 5512 5512 5512 5512 5512 5514 5516 5517 5517 5519 5520 5521 5523 5524 5524 5524 5525 5526 5527 5529 5530 5530 5530 5530 5530 5530 5531 5532 5531 5531 5531
5437 5434 5432 5432 5431 5430 5428 5427 5426 5425 5424 5423 5423 5424 5424 5425 5425 5424 5426 5430 5434 5437 5439 5441 5442 5444 5446 5448 5451 5455 5458 5458 5457 5459 5460 5461 5461 5462 5464 5467 5469 5473 5476 5479 5482 5484 5486 5489 5491 5493 5495 5497 5499 5500 5501 5502 5501 5501 5502 5505 5506 5507 5509 5510 5511 5511 5513 5514 5513 5514 5515 5516 5517 5518 5520 5521 5521 5521 5521 5520 5521 5522 5522 5521 5521
5421 5419 5417 5417 5416 5414 5412 5410 5409 5408 5406 5405 5405 5405 5405 5407 5409 5408 5408 5410 5414 5417 5420 5424 5427 5429 5431 5433 5435 5439 5444 5444 5443 5444 5446 5446 5447 5449 5451 5453 5456 5460 5464 5467 5469 5471 5474 5476 5478 5480 5483 5485 5487 5489 5489 5490 5490 5490 5492 5495 5496 5497 5500 5501 5501 5501 5503 5504 5503 5504 5505 5506 5507 5508 5510 5510 5511 5511 5511 5510 5510 5511 5512 5512 5511
5406 5405 5404 5403 5401 5399 5396 5394 5393 5391 5389 5388 5386 5386 5386 5387 5389 5390 5391 5393 5396 5398 5400 5404 5409 5413 5415 5417 5419 5423 5428 5431 5430 5430 5432 5432 5433 5435 5437 5439 5443 5448 5451 5454 5456 5459 5462 5463 5464 5468 5471 5474 5475 5476 5476 5478 5479 5479 5482 5484 5485 5488 5491 5491 5491 5492 5493 5493 5493 5493 5495 5497 5497 5498 5499 5499 5500 5501 5500 5499 5499 5501 5502 5502 5502
5392 5391 5390 5389 5386 5384 5381 5378 5376 5374 5373 5371 5369 5368 5368 5369 5369 5370 5371 5374 5378 5381 5383 5385 5390 5395 5398 5401 5403 5406 5411 5416 5416 5415 5417 5418 5418 5421 5423 5426 5431 5435 5438 5440 5443 5446 5449 5451 5453 5457 5460 5462 5463 5464 5464 5467 5468 5468 5470 5473 5475 5479 5482 5481 5481 5482 5483 5483 5483 5484 5485 5486 5487 5488 5488 5488 5490 5491 5489 5487 5489 5490 5491 5492 5492
5379 5377 5376 5374 5371 5369 5366 5363 5361 5359 5356 5354 5353 5352 5351 5351 5351 5352 5352 5354 5358 5362 5365 5368 5371 5376 5380 5383 5386 5390 5394 5398 5400 5400 5402 5404 5405 5407 5409 5413 5419 5422 5424 5427 5430 5434 5437 5440 5442 5446 5448 5450 5452 5452 5453 5456 5457 5458 5459 5462 5467 5471 5471 5469 5470 5472 5472 5472 5473 5473 5474 5476 5476 5477 5477 5477 5479 5481 5478 5477 5479 5481 5481 5482 5483
5364 5362 5360 5359 5356 5354 5351 5348 5345 5343 5341 5338 5337 5337 5337 5335 5334 5334 5334 5336 5338 5342 5346 5350 5353 5359 5363 5365 5368 5373 5377 5381 5384 5385 5386 5389 5391 5393 5395 5401 5406 5408 5410 5414 5418 5422 5426 5429 5432 5434 5435 5437 5439 5440 5442 5444 5446 5447 5449 5452 5457 5459 5457 5457 5459 5460 5460 5461 5462 5463 5464 5466 5466 5466 5467 5466 5467 5469 5468 5467 5469 5471 5471 5472 5473
5348 5345 5344 5343 5340 5337 5334 5331 5328 5326 5325 5322 5320 5321 5322 5320 5318 5318 5317 5317 5320 5323 5327 5331 5334 5340 5346 5349 5351 5356 5360 5362 5366 5369 5371 5373 5376 5378 5382 5388 5392 5392 5396 5402 5406 5411 5414 5416 5419 5421 5421 5423 5425 5427 5429 5431 5433 5436 5439 5442 5444 5445 5445 5446 5447 5447 5448 5451 5453 5454 5455 5455 5455 5455 5456 5456 5456 5458 5458 5458 5459 5461 5462 5462 5462
5330 5328 5327 5325 5322 5319 5315 5313 5311 5309 5307 5305 5302 5303 5306 5304 5302 5302 5301 5300 5301 5303 5308 5313 5315 5319 5326 5331 5335 5340 5343 5345 5348 5352 5355 5358 5361 5364 5368 5374 5377 5378 5383 5389 5394 5398 5401 5403 5406 5407 5408 5410 5413 5414 5416 5418 5421 5426 5430 5431 5431 5433 5434 5435 5436 5437 5439 5441 5443 5444 5445 5445 5445 5445 5446 5446 5446 5447 5449 5449 5450 5451 5451 5451 5451
5314 5312 5309 5306 5303 5301 5297 5295 5293 5291 5289 5287 5285 5286 5288 5288 5286 5286 5285 5284 5284 5285 5290 5294 5296 5299 5305 5311 5318 5324 5328 5330 5331 5334 5338 5342 5347 5350 5354 5359 5362 5365 5369 5375 5380 5384 5388 5390 5392 5394 5396 5398 5401 5402 5403 5405 5409 5415 5419 5419 5419 5421 5422 5424 5426 5427 5429 5431 5434 5435 5434 5435 5435 5434 5434 5435 5436 5437 5438 5439 5440 5440 5440 5441 5440
5297 5295 5292 5288 5285 5282 5278 5277 5275 5273 5272 5269 5267 5268 5269 5269 5268 5269 5268 5267 5267 5269 5271 5274 5277 5280 5284 5291 5298 5305 5311 5314 5316 5319 5322 5326 5331 5336 5339 5343 5347 5351 5355 5361 5366 5371 5375 5377 5378 5381 5383 5386 5388 5389 5392 5395 5398 5402 5406 5407 5407 5410 5413 5415 5415 5417 5419 5422 5424 5424 5424 5425 5424 5423 5424 5424 5425 5426 5427 5428 5429 5429 5430 5430 5430
5280 5278 5275 5272 5268 5264 5261 5259 5258 5256 5254 5252 5250 5250 5251 5251 5250 5251 5251 5251 5252 5252 5253 5255 5258 5260 5265 5271 5279 5286 5291 5296 5300 5305 5309 5312 5316 5321 5324 5327 5332 5336 5341 5347 5353 5358 5361 5363 5365 5368 5371 5373 5375 5378 5381 5384 5385 5389 5395 5396 5396 5400 5404 5405 5405 5408 5410 5412 5412 5412 5413 5413 5413 5412 5413 5414 5415 5416 5416 5417 5419 5419 5420 5420 5419
5263 5262 5259 5256 5253 5249 5245 5243 5241 5239 5238 5236 5234 5234 5235 5234 5233 5234 5234 5235 5235 5236 5236 5237 5239 5242 5246 5253 5260 5266 5271 5277 5284 5291 5296 5299 5301 5304 5306 5310 5316 5322 5329 5334 5340 5344 5347 5349 5351 5355 5358 5361 5364 5367 5370 5372 5373 5377 5384 5387 5387 5391 5394 5394 5395 5398 5399 5399 5400 5401 5401 5402 5402 5402 5403 5404 5404 5405 5406 5407 5408 5409 5409 5409 5409
5249 5247 5244 5241 5238 5235 5231 5228 5226 5223 5222 5221 5219 5219 5219 5218 5216 5217 5219 5218 5217 5219 5220 5221 5222 5225 5229 5234 5241 5247 5252 5261 5270 5277 5281 5283 5285 5287 5290 5296 5303 5309 5315 5322 5327 5330 5333 5335 5337 5341 5346 5350 5353 5356 5359 5361 5363 5367 5373 5377 5378 5381 5383 5383 5384 5386 5387 5387 5389 5390 5391 5391 5392 5393 5394 5394 5394 5394 5395 5396 5397 5398 5398 5398 5398
5238 5234 5231 5228 5225 5221 5217 5214 5212 5209 5208 5207 5205 5204 5204 5202 5200 5201 5204 5203 5201 5201 5202 5204 5207 5211 5212 5215 5222 5228 5236 5247 5256 5259 5262 5265 5268 5272 5278 5284 5289 5294 5300 5307 5313 5316 5319 5322 5326 5330 5334 5338 5342 5345 5349 5350 5352 5356 5361 5365 5368 5370 5372 5373 5373 5374 5375 5377 5378 5379 5379 5380 5381 5383 5384 5384 5385 5385 5385 5385 5386 5387 5387 5387 5387
5228 5224 5220 5216 5213 5209 5206 5203 5201 5197 5195 5194 5193 5192 5191 5189 5187 5187 5189 5190 5188 5185 5185 5188 5192 5195 5195 5198 5205 5210 5219 5231 5239 5241 5244 5249 5254 5259 5265 5271 5275 5279 5284 5290 5297 5303 5306 5310 5315 5318 5322 5325 5329 5333 5336 5338 5341 5345 5350 5354 5357 5360 5361 5361 5361 5362 5364 5366 5366 5366 5367 5369 5371 5373 5373 5374 5375 5375 5374 5375 5375 5375 5376 5376 5376
5218 5214 5209 5204 5201 5198 5195 5193 5190 5187 5185 5182 5180 5180 5180 5179 5176 5174 5175 5176 5175 5173 5172 5173 5176 5178 5179 5183 5188 5194 5202 5213 5220 5224 5229 5234 5238 5244 5250 5256 5260 5265 5268 5274 5283 5290 5294 5298 5303 5307 5309 5313 5317 5320 5324 5327 5330 5334 5338 5342 5346 5348 5349 5349 5350 5351 5352 5352 5353 5354 5356 5358 5360 5362 5362 5364 5364 5364 5364 5364 5364 5364 5364 5365 5365
5208 5204 5199 5194 5191 5188 5185 5183 5180 5177 5175 5172 5170 5169 5168 5168 5167 5165 5163 5162 5161 5160 5160 5161 5162 5164 5164 5167 5173 5179 5186 5195 5202 5208 5214 5219 5223 5229 5235 5240 5245 5250 5253 5259 5269 5278 5283 5287 5292 5295 5299 5302 5305 5308 5312 5316 5319 5322 5326 5330 5334 5336 5337 5338 5338 5338 5338 5339 5342 5344 5346 5348 5349 5350 5352 5353 5353 5353 5354 5354 5354 5353 5353 5353 5353
5198 5194 5190 5185 5182 5179 5176 5174 5170 5168 5165 5162 5160 5158 5157 5156 5156 5155 5153 5152 5150 5149 5149 5150 5151 5151 5152 5153 5158 5164 5171 5179 5185 5191 5197 5203 5209 5214 5219 5224 5231 5235 5237 5244 5257 5267 5273 5277 5281 5284 5287 5292 5295 5298 5301 5305 5308 5310 5313 5318 5321 5323 5325 5326 5325 5324 5326 5329 5332 5334 5336 5337 5338 5339 5341 5342 5342 5343 5343 5343 5343 5343 5343 5342 5342
5190 5186 5181 5177 5174 5171 5168 5165 5162 5159 5156 5153 5150 5149 5147 5145 5145 5144 5144 5143 5141 5140 5139 5139 5140 5141 5141 5142 5145 5150 5157 5163 5168 5175 5182 5188 5193 5199 5203 5208 5214 5218 5222 5232 5246 5256 5261 5265 5269 5273 5276 5280 5284 5287 5290 5293 5296 5298 5300 5304 5307 5310 5313 5314 5312 5313 5316 5320 5322 5324 5325 5326 5327 5329 5330 5331 5331 5332 5332 5332 5332 5332 5332 5331 5330
5184 5179 5174 5170 5166 5163 5159 5156 5153 5151 5147 5144 5142 5139 5138 5136 5135 5135 5134 5133 5133 5132 5131 5130 5130 5130 5132 5133 5135 5138 5143 5149 5154 5160 5167 5173 5178 5183 5187 5192 5199 5206 5212 5222 5235 5244 5249 5254 5259 5263 5266 5270 5273 5276 5278 5281 5284 5286 5288 5291 5295 5298 5301 5302 5301 5303 5307 5310 5312 5313 5314 5316 5317 5318 5319 5320 5320 5321 5321 5321 5321 5321 5320 5320 5319
5177 5173 5168 5163 5159 5156 5153 5149 5146 5144 5140 5137 5134 5131 5129 5128 5126 5126 5125 5124 5124 5124 5124 5123 5122 5122 5123 5124 5126 5128 5132 5137 5142 5147 5154 5160 5165 5168 5172 5181 5190 5197 5202 5211 5223 5232 5238 5243 5248 5253 5257 5260 5262 5264 5266 5269 5272 5275 5277 5280 5283 5286 5288 5290 5292 5294 5297 5299 5301 5302 5304 5305 5306 5307 5308 5309 5310 5310 5310 5311 5311 5310 5310 5309 5308
5172 5167 5163 5158 5155 5151 5148 5144 5140 5137 5133 5130 5127 5124 5122 5120 5119 5118 5118 5117 5116 5115 5115 5115 5115 5115 5115 5116 5117 5120 5123 5126 5131 5136 5142 5148 5151 5155 5162 5173 5181 5186 5192 5201 5210 5220 5228 5233 5238 5243 5247 5250 5251 5253 5255 5258 5261 5264 5267 5269 5272 5274 5276 5279 5282 5285 5287 5289 5290 5292 5293 5294 5295 5296 5297 5298 5299 5299 5300 5300 5300 5300 5299 5299 5298
5167 5162 5159 5155 5151 5148 5144 5139 5135 5130 5126 5123 5120 5118 5116 5114 5112 5111 5110 5110 5109 5108 5108 5107 5107 5108 5108 5109 5110 5112 5114 5117 5122 5127 5132 5137 5141 5146 5155 5163 5170 5176 5183 5190 5199 5209 5218 5224 5229 5234 5237 5238 5240 5241 5244 5247 5250 5253 5256 5258 5260 5263 5267 5270 5273 5275 5278 5279 5281 5283 5284 5285 5285 5286 5286 5287 5288 5289 5289 5289 5290 5290 5289 5289 5288
5163 5159 5155 5152 5148 5144 5139 5135 5130 5125 5121 5118 5115 5113 5110 5108 5107 5106 5105 5104 5103 5102 5101 5101 5101 5101 5101 5102 5103 5104 5106 5110 5115 5119 5123 5129 5134 5139 5146 5153 5159 5166 5173 5180 5189 5199 5207 5214 5219 5223 5225 5226 5228 5230 5234 5237 5240 5243 5246 5248 5251 5255 5259 5261 5264 5266 5268 5270 5272 5273 5275 5276 5276 5276 5277 5278 5279 5279 5279 5279 5280 5280 5280 5279 5278
5161 5156 5152 5149 5145 5140 5135 5131 5126 5122 5118 5114 5111 5108 5106 5104 5102 5101 5099 5098 5097 5096 5095 5095 5095 5095 5095 5096 5098 5099 5101 5105 5109 5112 5117 5122 5127 5131 5137 5143 5150 5157 5163 5170 5179 5189 5197 5203 5208 5211 5212 5214 5216 5218 5222 5226 5230 5235 5238 5240 5244 5247 5250 5252 5254 5256 5258 5260 5262 5264 5265 5267 5267 5268 5269 5269 5270 5269 5270 5270 5270 5270 5270 5269 5269
5159 5154 5151 5147 5142 5138 5133 5128 5123 5119 5115 5111 5108 5105 5103 5100 5098 5096 5094 5093 5092 5091 5091 5090 5090 5090 5091 5092 5094 5096 5098 5101 5104 5108 5112 5117 5121 5124 5129 5135 5142 5148 5155 5162 5171 5179 5186 5192 5197 5199 5200 5200 5202 5206 5211 5217 5222 5227 5230 5233 5236 5238 5240 5242 5244 5246 5248 5251 5253 5255 5256 5257 5258 5259 5260 5260 5260 5260 5260 5260 5260 5260 5260 5259 5259
5157 5153 5149 5145 5141 5136 5131 5126 5121 5117 5113 5109 5106 5103 5100 5098 5095 5093 5091 5090 5089 5088 5087 5087 5087 5088 5088 5089 5091 5093 5095 5098 5101 5104 5108 5112 5115 5119 5124 5130 5136 5142 5148 5154 5162 5169 5176 5182 5185 5186 5186 5187 5190 5196 5203 5209 5214 5218 5221 5224 5227 5229 5231 5233 5235 5237 5239 5241 5243 5245 5246 5247 5248 5249 5250 5250 5250 5250 5250 5249 5249 5250 5249 5249 5249
5156 5152 5148 5144 5140 5135 5130 5125 5121 5116 5113 5109 5106 5103 5100 5098 5095 5093 5091 5089 5087 5086 5086 5086 5086 5086 5087 5088 5089 5091 5094 5096 5098 5101 5105 5108 5111 5115 5120 5125 5130 5136 5141 5147 5154 5160 5166 5170 5172 5172 5173 5177 5183 5189 5195 5200 5205 5209 5212 5215 5217 5219 5222 5224 5226 5228 5230 5232 5233 5235 5236 5237 5238 5239 5239 5239 5239 5239 5239 5239 5239 5239 5239 5239 5238
5155 5151 5147 5143 5139 5135 5130 5126 5121 5117 5114 5111 5107 5105 5102 5099 5096 5094 5092 5090 5088 5087 5086 5086 5086 5086 5086 5087 5089 5090 5092 5094 5097 5099 5102 5105 5108 5111 5116 5120 5125 5130 5135 5140 5146 5151 5155 5158 5160 5163 5167 5173 5178 5183 5188 5193 5197 5200 5203 5206 5208 5211 5213 5215 5217 5219 5220 5222 5224 5226 5227 5227 5228 5228 5229 5229 5229 5228 5228 5228 5228 5228 5229 5228 5228
5154 5150 5146 5142 5139 5135 5131 5127 5123 5119 5115 5112 5109 5107 5104 5101 5099 5097 5094 5092 5090 5089 5088 5087 5087 5087 5087 5088 5088 5090 5091 5093 5095 5097 5100 5102 5105 5108 5112 5116 5120 5124 5129 5134 5138 5142 5146 5149 5152 5157 5163 5168 5173 5177 5181 5185 5188 5192 5195 5197 5200 5202 5204 5206 5208 5210 5212 5214 5215 5216 5217 5218 5219 5219 5219 5219 5219 5219 5218 5218 5218 5218 5218 5218 5218
5154 5150 5146 5142 5138 5134 5131 5127 5123 5120 5116 5113 5111 5108 5106 5103 5101 5099 5097 5095 5094 5092 5091 5090 5089 5089 5089 5089 5089 5090 5091 5092 5094 5096 5098 5101 5103 5106 5109 5112 5116 5120 5124 5128 5132 5136 5139 5143 5148 5153 5157 5162 5167 5171 5175 5178 5181 5184 5187 5189 5192 5194 5196 5197 5199 5201 5203 5205 5206 5207 5208 5209 5209 5210 5210 5210 5209 5209 5209 5209 5209 5209 5209 5209 5209
5155 5151 5146 5142 5138 5135 5131 5128 5124 5121 5118 5115 5112 5110 5107 5105 5103 5101 5100 5098 5097 5095 5094 5093 5092 5091 5091 5090 5090 5091 5092 5093 5094 5096 5097 5100 5102 5104 5107 5110 5113 5117 5121 5124 5128 5131 5135 5140 5144 5148 5152 5157 5161 5165 5168 5171 5174 5176 5179 5182 5184 5185 5187 5189 5191 5193 5194 5196 5197 5198 5199 5200 5201 5201 5202 5201 5201 5201 5201 5200 5200 5201 5200 5200 5199
5157 5153 5148 5144 5140 5136 5132 5128 5125 5122 5119 5116 5113 5111 5109 5106 5105 5103 5102 5100 5099 5097 5097 5095 5094 5094 5093 5093 5093 5093 5093 5094 5095 5097 5098 5100 5102 5104 5107 5109 5112 5115 5119 5122 5125 5129 5133 5136 5140 5144 5148 5152 5155 5158 5161 5164 5167 5169 5171 5173 5175 5177 5179 5181 5183 5185 5186 5187 5189 5190 5190 5192 5193 5193 5194 5193 5193 5193 5192 5192 5192 5192 5192 5191 5190
5158 5154 5150 5146 5142 5138 5134 5130 5126 5123 5120 5117 5115 5112 5110 5108 5106 5104 5103 5102 5101 5099 5098 5097 5096 5096 5095 5095 5095 5095 5096 5096 5097 5099 5100 5101 5103 5105 5107 5110 5112 5115 5118 5121 5124 5127 5130 5133 5137 5141 5144 5147 5150 5153 5155 5158 5160 5162 5164 5166 5167 5170 5172 5174 5176 5177 5179 5180 5182 5183 5184 5185 5186 5186 5186 5186 5185 5185 5185 5184 5184 5184 5183 5182 5182
5158 5154 5150 5147 5143 5139 5136 5132 5128 5124 5121 5118 5116 5113 5111 5109 5107 5105 5104 5103 5102 5101 5100 5099 5098 5098 5097 5097 5097 5097 5097 5098 5099 5100 5101 5103 5104 5106 5109 5111 5113 5115 5118 5120 5123 5126 5128 5131 5134 5137 5140 5142 5145 5148 5150 5152 5154 5156 5158 5160 5162 5164 5166 5167 5169 5171 5172 5174 5175 5176 5177 5178 5179 5179 5179 5179 5178 5178 5177 5177 5177 5176 5175 5174 5173
5158 5155 5151 5147 5143 5140 5136 5133 5130 5126 5123 5120 5117 5114 5112 5110 5108 5106 5105 5104 5103 5102 5101 5100 5100 5099 5099 5099 5099 5099 5099 5099 5100 5101 5102 5104 5105 5107 5109 5111 5113 5116 5118 5120 5122 5125 5127 5129 5132 5134 5136 5139 5141 5143 5145 5147 5149 5151 5153 5155 5157 5159 5161 5162 5164 5165 5166 5168 5169 5170 5171 5171 5172 5172 5172 5171 5171 5170 5170 5169 5169 5168 5167 5166 5165